Regional Weather Roundup
Issued by NWS Upton, NY

Current Version | Previous Version | Text Only | Print | Product List | Glossary On
Versions: 1 2 3 4 5 6 7 8 9 10 11 12 13 14 15 16 17 18 19 20 21 22 23 24 25 26 27 28 29 30 31 32 33 34 35 36 37 38 39 40 41 42 43 44 45 46 47 48 49 50
000
ASUS41 KOKX 281814
RWROKX

Regional Weather Roundup
National Weather Service New York NY
200 PM EDT WED OCT 28 2020

Note: "FAIR" indicates few or no clouds below 12,000 feet with no
significant weather and/or obstructions to visibility.

NYZ071-072-176-178-NJZ106-104-281900-
New York City Metro Area

CITY           SKY/WX    TMP DP  RH WIND       PRES   REMARKS
Central Park   CLOUDY    53  51  93 CALM      30.01F FOG
Bronx Lehman C   N/A     52  52 100 NW3         N/A
LaGuardia Arpt CLOUDY    55  51  86 CALM      29.98F
Queens College   N/A     54  52  94 NW5         N/A
Kennedy Intl   CLOUDY    56  54  93 N8        29.99F FOG
Breezy Point     N/A     55 N/A N/A NW6         N/A
Brooklyn Coll    N/A     54  52  94 W7          N/A
Staten Island    N/A     54  52  94 NW5         N/A
Newark/Liberty CLOUDY    55  52  89 NW6       29.99F
Teterboro      CLOUDY    54  52  93 NW3       29.97F FOG
$$

NYZ177-179-078>081-281900-
Long Island New York

CITY           SKY/WX    TMP DP  RH WIND       PRES   REMARKS
Jones Beach      N/A     55 N/A N/A NW8         N/A
Wantagh          N/A     55  55 100 NW7         N/A
Hempstead      NOT AVBL
Matinecock Pt    N/A     54 N/A N/A NW2         N/A
Farmingdale    CLOUDY    57  53  86 NW8       29.97F
MacArthur/ISP  DRIZZLE   56  56 100 NW10      29.97S FOG
Shirley        CLOUDY    59  55  87 NW9       29.96F FOG
Mt Sinai Harb    N/A     52 N/A N/A N5          N/A
Westhampton    LGT RAIN  58  56  93 NW12      29.97S FOG
East Hampton   CLOUDY    59  58  97 W10       29.94S FOG
Southold         N/A     54  54 100 N9          N/A
Montauk          N/A     60  59  96 W5        29.94F
$$

NYZ052-065-067-281900-
Hudson Valley

CITY           SKY/WX    TMP DP  RH WIND       PRES   REMARKS
White Plains   PTSUNNY   53  50  89 NW3       29.96F
Larchmont Harb   N/A     52 N/A N/A W5          N/A
Croton On Huds   N/A     54 N/A N/A N1          N/A
Somers           N/A     52  50  93 S2          N/A
Brewster         N/A     50  48  93 SW1         N/A
Newburgh       CLOUDY    52  52 100 CALM      29.96F
Montgomery     CLOUDY    52  49  89 SW7       29.96F
Otisville        N/A     52  48  87 SW3         N/A
Warwick          N/A     52  48  87 W8          N/A
Suffern          N/A     54  50  87 W3          N/A
Poughkeepsie   CLOUDY    52  48  86 SW3       29.95F
Albany         CLOUDY    46  46 100 S8        29.97F
$$

NJZ001-105-106-008-010-013-015-019>022-104-281900-
New Jersey

CITY           SKY/WX    TMP DP  RH WIND       PRES   REMARKS
Newark/Liberty CLOUDY    55  52  89 NW6       29.99F
Teterboro      CLOUDY    54  52  93 NW3       29.97F FOG
Caldwell       CLOUDY    57  52  83 CALM      29.98F
Somerville     CLOUDY    55  52  89 W5        29.98F
Linden         CLOUDY    54  52  93 W3        29.99F
Perth Amboy      N/A     54 N/A N/A NW8         N/A
Sussex         CLOUDY    53  49  86 S5        29.97F
Andover          N/A     53  49  86 S3        29.98F
Trenton        CLOUDY    54  54 100 NW6       29.99F FOG
Millville      CLOUDY    68  61  78 W8        29.99F
Atlantic City  PTSUNNY   68  60  75 SW13G23   29.98F
Wrightstown    PTSUNNY   62  58  87 NW6       29.98
Toms River     CLOUDY    68  61  78 W9        29.98F
Belmar         CLOUDY    59  58  96 NW8       29.99S FOG
$$

PAZ047>061-062-071-281900-
Eastern Pennsylvania

CITY           SKY/WX    TMP DP  RH WIND       PRES   REMARKS
Philadelphia   CLOUDY    67  60  78 W10       29.98
Allentown      CLOUDY    53  50  89 SW7       30.00F
Scranton       CLOUDY    53  49  86 SW8       29.98F
$$

CTZ002-004>006-009-010-012-RIZ004-006-007-MAZ004-011-015-281900-
Southern New England

 In CT

CITY           SKY/WX    TMP DP  RH WIND       PRES   REMARKS
Bradley Intl   CLOUDY    50  45  83 CALM      29.96F
Hartford       CLOUDY    50  46  86 CALM      29.97F
Danbury        CLOUDY    50  48  93 CALM      29.97F
Wtrbury/Oxford CLOUDY    48  48 100 NE3       29.96F
Norwalk Harbor   N/A     50 N/A N/A NW5         N/A
Bridgeport     CLOUDY    52  50  93 N8        29.97F
Meriden        CLOUDY    50  46  86 N5        29.97F
New Haven      CLOUDY    52  50  93 N12       29.96F
Chester        CLOUDY    50  48  93 VRB7      29.95F FOG
Groton         LGT RAIN  52  51  97 N9        29.95F FOG
Willimantic    CLOUDY    49  47  93 N3        29.97F FOG

 In RI

CITY           SKY/WX    TMP DP  RH WIND       PRES   REMARKS
Providence     LGT RAIN  51  50  96 N8        29.97F FOG
Block Island   LGT RAIN  57  56  96 NW5       29.94F FOG
Westerly       LGT RAIN  54  52  93 N5        29.95F FOG

In MA

CITY           SKY/WX    TMP DP  RH WIND       PRES   REMARKS
Boston         LGT RAIN  49  47  93 E5        29.99F FOG
Worcester      FOG       45  43  93 E6        29.95F VSB 1/2
Westfield      CLOUDY    48  46  93 CALM      29.97F
Provincetown   LGT RAIN  50  50 100 SE9       29.99F FOG
Nantucket      CLOUDY    52  51  97 SE15      29.95F FOG
$$

ANZ330-335-338-340-345-350-353-355-281900-
Coastal Marine Observations


STATION/POSITION TIME  SKY/WX   TEMP    WIND        PRES    VSBY  WAVE
                                AIR SEA DIR/SP/G                  HT/PER
                 (UTC)          (F)     (DEG/KT/KT) (MB)    (MI)  (FT/S)
NY Harb Entrance 1750               62  310/ 12/ 16 1014.6          3/ 8
20 S Fire Island 1750               63  250/ 14/ 17 1014.3          4/ 5
Great South Bay  1730            58     280/ 10/ 12   N/A
23 SSW Montauk P 1750            62 62  260/ 19/ 25 1013.8          4/ 5
15 E Barnegat Li 1756               63                N/A           4/ 6
Hudson Canyon    1750               66              1016.1          6/ 6
Kings Point      1730                    30/  8/ 10 1016.2
Execution Rocks  1745            53     310/  6/ 10   N/A
Western LI Sound NOT AVBL
Central LI Sound NOT AVBL
Robbins Reef     1730                   330/  5/  7 1015.3
$$


>>>>>>>>>>>>>>>>>>>>>>>>>>>> KEY <<<<<<<<<<<<<<<<<<<<<<<<<<<
>                                                          <
>     SKY/WX - Sky Condition/Present Weather               <
>     TMP    - Temperature in Fahrenheit                   <
>     DP     - Dew Point in Fahrenheit                     <
>     RH     - Relative Humidity in Percent                <
>     WIND   - Direction (from) and Speed in MPH           <
>     PRES   - Mean Sea Level Pressure (inches of Hg)      <
>     WCI    - Wind Chill Index                            <
>     VSB    - Visibility in Miles                         <
>     HX     - Heat Index                                  <
>     TC     - Temperature in Celsius                      <
>     VRB    - Variable Wind Direction                     <
>                                                          <
>>>>>>>>>>>>>>>>>>>>>>>>>>>> KEY <<<<<<<<<<<<<<<<<<<<<<<<<<<



USA.gov is the U.S. government's official web portal to all federal, state and local government web resources and services.